スワン彗星

C/2004 H6 ( SWAN )

English version
Home page
Updated on September 22, 2004

---------------------------------------------------------------------

・ プロフィール

発見日 2004年4月29日
発見光度
発見者 X.-m. Zhou, K. Cernis, and M. Mattiazzo

・ 写真集

・ 軌道要素

Epoch 2004 Apr. 25.0 TT = JDT 2453120.5
T 2004 May 12.68449 TT                                  MPC
q   0.7762059            (2000.0)            P               Q
z  -0.0006411      Peri.  269.04100     +0.19364021     +0.73760147
 +/-0.0000484      Node   317.24449     +0.59375186     -0.61300060
e   1.0004976      Incl.  107.66093     -0.78100077     -0.28315073

・ 星図

・ 光度変化

        m1 = 12   + 5 logΔ +  20   log r  [   ,-14]  (              〜2004年 4月28日)
        m1 = 20.1 + 5 logΔ + 115   log r  [-14,  0]  (2004年 4月28日〜2004年 5月12日)
        m1 =  5.0 + 5 logΔ -  18.8 log r  [  0, 16]  (2004年 5月12日〜2004年 5月28日)
        m1 =  7.3 + 5 logΔ +  10.0 log r  [ 16, 40]  (2004年 5月28日〜2004年 6月21日)
        m1 =  7.0 + 5 logΔ +  20.0 log r  [ 40,100]  (2004年 6月21日〜2004年 8月20日)
        m1 = 13   + 5 logΔ +  15   log r  [100,   ]  (2004年 8月20日〜              )

---------------------------------------------------------------------

軌道要素はM.P.E.C. 2004-N33に掲載されたものです。
星図は StellaNavigator Ver.2.0 for Windows (アストロアーツ 編著 / アスキー出版局刊) で作成したものです。
光度グラフはComet for Windowsで作成したものです。

---------------------------------------------------------------------

Copyright(C) Seiichi Yoshida (comet@aerith.net). All rights reserved.